TimeCDT,TemperatureF,Dew PointF,Humidity,Sea Level PressureIn,VisibilityMPH,Wind Direction,Wind SpeedMPH,Gust SpeedMPH,PrecipitationIn,Events,Conditions,WindDirDegrees,DateUTC
12:15 AM,51.8,42.8,71,30.11,10.0,Calm,Calm,-,N/A,,Clear,0,2012-10-09 05:15:00
12:35 AM,48.2,42.8,82,30.11,10.0,Calm,Calm,-,N/A,,Clear,0,2012-10-09 05:35:00
12:55 AM,46.4,42.8,87,30.11,10.0,Calm,Calm,-,N/A,,Clear,0,2012-10-09 05:55:00
1:15 AM,46.4,42.8,87,30.11,10.0,Calm,Calm,-,N/A,,Clear,0,2012-10-09 06:15:00
1:35 AM,46.4,42.8,87,30.11,10.0,Calm,Calm,-,N/A,,Clear,0,2012-10-09 06:35:00
1:55 AM,46.4,44.6,93,30.11,10.0,Calm,Calm,-,N/A,,Clear,0,2012-10-09 06:55:00
2:15 AM,44.6,44.6,100,30.11,10.0,Calm,Calm,-,N/A,,Clear,0,2012-10-09 07:15:00
2:35 AM,44.6,44.6,100,30.11,10.0,Calm,Calm,-,N/A,,Clear,0,2012-10-09 07:35:00
3:15 AM,46.4,46.4,100,30.11,10.0,South,3.5,-,N/A,,Clear,190,2012-10-09 08:15:00
3:35 AM,46.4,44.6,93,30.10,10.0,Calm,Calm,-,N/A,,Clear,0,2012-10-09 08:35:00
3:55 AM,46.4,44.6,93,30.09,10.0,Calm,Calm,-,N/A,,Clear,0,2012-10-09 08:55:00
4:15 AM,46.4,44.6,93,30.09,10.0,Calm,Calm,-,N/A,,Clear,0,2012-10-09 09:15:00
4:35 AM,48.2,46.4,93,30.09,10.0,South,3.5,-,N/A,,Clear,190,2012-10-09 09:35:00
4:55 AM,50.0,44.6,82,30.09,10.0,Calm,Calm,-,N/A,,Clear,0,2012-10-09 09:55:00
5:15 AM,46.4,42.8,87,30.09,10.0,Calm,Calm,-,N/A,,Clear,0,2012-10-09 10:15:00
5:35 AM,44.6,42.8,93,30.09,10.0,Calm,Calm,-,N/A,,Clear,0,2012-10-09 10:35:00
5:55 AM,42.8,42.8,100,30.09,10.0,Calm,Calm,-,N/A,,Clear,0,2012-10-09 10:55:00
6:15 AM,42.8,42.8,100,30.09,10.0,Calm,Calm,-,N/A,,Clear,0,2012-10-09 11:15:00
6:35 AM,42.8,42.8,100,30.09,10.0,Calm,Calm,-,N/A,,Clear,0,2012-10-09 11:35:00
7:15 AM,42.8,42.8,100,30.09,10.0,Calm,Calm,-,N/A,,Clear,0,2012-10-09 12:15:00
7:35 AM,42.8,42.8,100,30.09,7.0,Calm,Calm,-,N/A,,Clear,0,2012-10-09 12:35:00
7:55 AM,42.8,42.8,100,30.09,7.0,Calm,Calm,-,N/A,,Clear,0,2012-10-09 12:55:00
8:15 AM,44.6,44.6,100,30.09,7.0,East,3.5,-,N/A,,Scattered Clouds,90,2012-10-09 13:15:00
8:35 AM,46.4,46.4,100,30.10,10.0,Calm,Calm,-,N/A,,Mostly Cloudy,0,2012-10-09 13:35:00
9:15 AM,51.8,50.0,94,30.10,10.0,Calm,Calm,-,N/A,,Overcast,0,2012-10-09 14:15:00
9:35 AM,55.4,48.2,77,30.11,10.0,South,3.5,-,N/A,,Overcast,170,2012-10-09 14:35:00
9:55 AM,55.4,44.6,67,30.11,10.0,SSE,6.9,-,N/A,,Overcast,150,2012-10-09 14:55:00
10:15 AM,55.4,44.6,67,30.11,10.0,South,5.8,-,N/A,,Overcast,190,2012-10-09 15:15:00
10:35 AM,55.4,44.6,67,30.10,10.0,SSE,6.9,-,N/A,,Overcast,160,2012-10-09 15:35:00
10:55 AM,55.4,44.6,67,30.09,10.0,SSE,4.6,-,N/A,,Overcast,150,2012-10-09 15:55:00
11:15 AM,57.2,44.6,63,30.09,10.0,Calm,Calm,-,N/A,,Overcast,0,2012-10-09 16:15:00
11:35 AM,57.2,46.4,67,30.09,10.0,South,3.5,-,N/A,,Overcast,180,2012-10-09 16:35:00
11:55 AM,57.2,46.4,67,30.08,10.0,SSE,3.5,-,N/A,,Overcast,160,2012-10-09 16:55:00
12:15 PM,59.0,46.4,63,30.07,10.0,Calm,Calm,-,N/A,,Overcast,0,2012-10-09 17:15:00
12:35 PM,59.0,46.4,63,30.05,10.0,ESE,4.6,-,N/A,,Overcast,110,2012-10-09 17:35:00
12:55 PM,60.8,46.4,59,30.03,10.0,SE,3.5,-,N/A,,Overcast,130,2012-10-09 17:55:00
1:15 PM,60.8,48.2,63,30.03,10.0,Calm,Calm,-,N/A,,Overcast,0,2012-10-09 18:15:00
1:35 PM,62.6,50.0,63,30.01,10.0,Calm,Calm,-,N/A,,Overcast,0,2012-10-09 18:35:00
1:55 PM,62.6,50.0,63,30.00,10.0,South,4.6,-,N/A,,Overcast,170,2012-10-09 18:55:00
2:15 PM,64.4,51.8,64,29.98,10.0,SSE,5.8,-,N/A,,Overcast,150,2012-10-09 19:15:00
2:35 PM,66.2,51.8,60,29.97,10.0,SSE,4.6,-,N/A,,Overcast,160,2012-10-09 19:35:00
2:55 PM,68.0,51.8,56,29.95,10.0,SSE,5.8,-,N/A,,Overcast,150,2012-10-09 19:55:00
3:15 PM,68.0,51.8,56,29.95,10.0,South,3.5,-,N/A,,Overcast,170,2012-10-09 20:15:00
3:35 PM,66.2,51.8,60,29.93,10.0,SSE,6.9,16.1,N/A,,Mostly Cloudy,160,2012-10-09 20:35:00
3:55 PM,66.2,53.6,64,29.92,10.0,SSE,5.8,-,N/A,,Overcast,160,2012-10-09 20:55:00
4:15 PM,66.2,53.6,64,29.93,10.0,South,5.8,-,N/A,,Overcast,190,2012-10-09 21:15:00
4:35 PM,64.4,53.6,68,29.93,10.0,South,3.5,-,N/A,,Overcast,180,2012-10-09 21:35:00
5:15 PM,64.4,53.6,68,29.94,10.0,SW,4.6,-,N/A,,Overcast,220,2012-10-09 22:15:00
5:35 PM,64.4,53.6,68,29.94,10.0,South,3.5,-,N/A,,Overcast,170,2012-10-09 22:35:00
5:55 PM,64.4,53.6,68,29.93,10.0,Calm,Calm,-,N/A,,Overcast,0,2012-10-09 22:55:00
6:15 PM,64.4,53.6,68,29.94,10.0,Calm,Calm,-,N/A,,Overcast,0,2012-10-09 23:15:00
6:35 PM,64.4,53.6,68,29.96,10.0,Calm,Calm,-,N/A,,Overcast,0,2012-10-09 23:35:00
6:55 PM,64.4,55.4,73,29.97,10.0,NNW,4.6,-,N/A,,Overcast,330,2012-10-09 23:55:00
7:15 PM,62.6,55.4,77,29.98,10.0,NNW,3.5,-,N/A,Rain,Light Rain,340,2012-10-10 00:15:00
7:35 PM,62.6,55.4,77,29.99,7.0,Calm,Calm,-,N/A,,Drizzle,0,2012-10-10 00:35:00
7:55 PM,60.8,59.0,94,30.01,7.0,Calm,Calm,-,N/A,,Drizzle,0,2012-10-10 00:55:00
8:15 PM,60.8,60.8,100,30.01,7.0,Calm,Calm,-,N/A,,Drizzle,0,2012-10-10 01:15:00
8:35 PM,60.8,60.8,100,30.02,7.0,Calm,Calm,-,N/A,,Light Drizzle,0,2012-10-10 01:35:00
8:55 PM,60.8,60.8,100,30.03,7.0,Calm,Calm,-,N/A,,Drizzle,0,2012-10-10 01:55:00
9:15 PM,60.8,60.8,100,30.04,5.0,Calm,Calm,-,N/A,,Overcast,0,2012-10-10 02:15:00
9:35 PM,60.8,60.8,100,30.04,7.0,Calm,Calm,-,N/A,,Overcast,0,2012-10-10 02:35:00
9:55 PM,60.8,60.8,100,30.05,7.0,Calm,Calm,-,N/A,,Overcast,0,2012-10-10 02:55:00
10:15 PM,60.8,60.8,100,30.06,7.0,Calm,Calm,-,N/A,,Overcast,0,2012-10-10 03:15:00
10:35 PM,60.8,60.8,100,30.06,7.0,Calm,Calm,-,N/A,,Overcast,0,2012-10-10 03:35:00
10:55 PM,60.8,60.8,100,30.06,5.0,Calm,Calm,-,N/A,,Overcast,0,2012-10-10 03:55:00
11:15 PM,59.0,59.0,100,30.07,3.0,Calm,Calm,-,N/A,,Mist,0,2012-10-10 04:15:00
11:35 PM,59.0,59.0,100,30.07,1.2,Calm,Calm,-,N/A,,Mist,0,2012-10-10 04:35:00
11:55 PM,55.4,55.4,100,30.07,0.2,Calm,Calm,-,N/A,Fog,Fog,0,2012-10-10 04:55:00